| time (UTC) | temp C | wind direction | speed KPH | gust KPH | rain 1hr cm | rain 24hr cm | rain mn cm | humidity % | barometer mb |
| 20260506231507 | 15 | 135 | 3.2 | 12.9 | 0.00 | 0.00 | 0.00 | 71 | 1021.0 |
| 20260506231004 | 15 | 168 | 4.8 | 20.9 | 0.00 | 0.00 | 0.00 | 72 | 1021.0 |
| 20260506230504 | 15 | 136 | 8.0 | 20.9 | 0.00 | 0.00 | 0.00 | 72 | 1021.0 |
| 20260506230009 | 15 | 180 | 4.8 | 14.5 | 0.00 | 0.00 | 0.00 | 72 | 1020.9 |
| 20260506225504 | 15 | 124 | 6.4 | 14.5 | 0.00 | 0.00 | 0.00 | 73 | 1021.0 |
| 20260506225003 | 15 | 177 | 3.2 | 9.7 | 0.00 | 0.00 | 0.00 | 73 | 1021.1 |
| 20260506224515 | 15 | 192 | 4.8 | 12.9 | 0.00 | 0.00 | 0.00 | 73 | 1021.0 |
| 20260506224004 | 15 | 110 | 4.8 | 12.9 | 0.00 | 0.00 | 0.00 | 73 | 1021.0 |
| 20260506223507 | 15 | 123 | 4.8 | 11.3 | 0.00 | 0.00 | 0.00 | 73 | 1021.1 |
| 20260506223020 | 15 | 142 | 4.8 | 9.7 | 0.00 | 0.00 | 0.00 | 74 | 1021.1 |
| 20260506222506 | 15 | 141 | 3.2 | 8.0 | 0.00 | 0.00 | 0.00 | 74 | 1021.2 |
| 20260506222009 | 15 | 138 | 3.2 | 8.0 | 0.00 | 0.00 | 0.00 | 74 | 1021.2 |
| 20260506221524 | 15 | 215 | 3.2 | 9.7 | 0.00 | 0.00 | 0.00 | 75 | 1021.2 |
| 20260506221009 | 15 | 218 | 4.8 | 12.9 | 0.00 | 0.00 | 0.00 | 75 | 1021.3 |
| 20260506220504 | 14 | 171 | 3.2 | 12.9 | 0.00 | 0.00 | 0.00 | 74 | 1021.3 |
| 20260506220008 | 14 | 175 | 3.2 | 11.3 | 0.00 | 0.00 | 0.00 | 76 | 1021.3 |
| 20260506215503 | 14 | 167 | 3.2 | 11.3 | 0.00 | 0.00 | 0.00 | 77 | 1021.3 |
| 20260506215006 | 14 | 152 | 4.8 | 12.9 | 0.00 | 0.00 | 0.00 | 76 | 1021.2 |
| 20260506214510 | 14 | 148 | 6.4 | 12.9 | 0.00 | 0.00 | 0.00 | 76 | 1021.3 |
| 20260506214004 | 14 | 202 | 4.8 | 12.9 | 0.00 | 0.00 | 0.00 | 76 | 1021.3 |
| 20260506213503 | 14 | 165 | 8.0 | 16.1 | 0.00 | 0.00 | 0.00 | 74 | 1021.3 |
| 20260506213016 | 15 | 151 | 6.4 | 16.1 | 0.00 | 0.00 | 0.00 | 75 | 1021.3 |
| 20260506212507 | 15 | 219 | 6.4 | 14.5 | 0.00 | 0.00 | 0.00 | 76 | 1021.2 |
| 20260506212007 | 15 | 159 | 3.2 | 11.3 | 0.00 | 0.00 | 0.00 | 75 | 1021.3 |
| 20260506211537 | 15 | 135 | 4.8 | 11.3 | 0.00 | 0.00 | 0.00 | 74 | 1021.4 |
| 20260506211009 | 15 | 158 | 3.2 | 11.3 | 0.00 | 0.00 | 0.00 | 74 | 1021.3 |
| 20260506210511 | 15 | 134 | 3.2 | 14.5 | 0.00 | 0.00 | 0.00 | 74 | 1021.2 |
| 20260506210033 | 15 | 182 | 6.4 | 14.5 | 0.00 | 0.00 | 0.00 | 74 | 1021.1 |
| 20260506205503 | 15 | 132 | 4.8 | 12.9 | 0.00 | 0.00 | 0.00 | 74 | 1021.0 |
| 20260506205004 | 15 | 155 | 3.2 | 9.7 | 0.00 | 0.00 | 0.00 | 74 | 1021.1 |
| 20260506204515 | 15 | 138 | 4.8 | 11.3 | 0.00 | 0.00 | 0.00 | 74 | 1021.0 |
| 20260506204004 | 15 | 81 | 6.4 | 20.9 | 0.00 | 0.00 | 0.00 | 74 | 1021.0 |
| 20260506203503 | 15 | 152 | 4.8 | 20.9 | 0.00 | 0.00 | 0.00 | 75 | 1021.1 |
| 20260506203015 | 15 | 144 | 9.7 | 17.7 | 0.00 | 0.00 | 0.00 | 75 | 1021.1 |
| 20260506202503 | 15 | 184 | 6.4 | 25.7 | 0.00 | 0.00 | 0.00 | 75 | 1021.1 |
| 20260506202007 | 15 | 146 | 9.7 | 25.7 | 0.00 | 0.00 | 0.00 | 75 | 1021.1 |
| 20260506201518 | 15 | 188 | 9.7 | 22.5 | 0.00 | 0.00 | 0.00 | 75 | 1021.1 |
| 20260506201009 | 15 | 125 | 9.7 | 22.5 | 0.00 | 0.00 | 0.00 | 74 | 1021.2 |
| 20260506200508 | 15 | 188 | 6.4 | 16.1 | 0.00 | 0.00 | 0.00 | 76 | 1021.1 |
| 20260506200029 | 15 | 147 | 4.8 | 9.7 | 0.00 | 0.00 | 0.00 | 76 | 1021.1 |
| 20260506195511 | 15 | 105 | 1.6 | 17.7 | 0.00 | 0.00 | 0.00 | 78 | 1021.0 |
| 20260506195013 | 14 | 173 | 4.8 | 17.7 | 0.00 | 0.00 | 0.00 | 80 | 1020.9 |
| 20260506194526 | 14 | 165 | 1.6 | 9.7 | 0.00 | 0.00 | 0.00 | 80 | 1020.9 |
| 20260506194005 | 13 | 114 | 1.6 | 9.7 | 0.00 | 0.00 | 0.00 | 80 | 1020.9 |
| 20260506193504 | 13 | 44 | 1.6 | 11.3 | 0.00 | 0.00 | 0.00 | 81 | 1020.9 |
| 20260506193011 | 13 | 127 | 3.2 | 11.3 | 0.00 | 0.00 | 0.00 | 81 | 1021.0 |
| 20260506192510 | 13 | 131 | 1.6 | 8.0 | 0.00 | 0.00 | 0.00 | 81 | 1021.0 |
| 20260506192005 | 13 | 115 | 1.6 | 11.3 | 0.00 | 0.00 | 0.00 | 81 | 1021.0 |
| 20260506191516 | 13 | 142 | 1.6 | 12.9 | 0.00 | 0.00 | 0.00 | 82 | 1020.9 |
| 20260506191006 | 13 | 146 | 4.8 | 12.9 | 0.00 | 0.00 | 0.00 | 82 | 1020.9 |
| 20260506190506 | 13 | 148 | 3.2 | 14.5 | 0.00 | 0.00 | 0.00 | 82 | 1020.9 |
| 20260506190024 | 13 | 196 | 4.8 | 14.5 | 0.00 | 0.00 | 0.00 | 81 | 1020.9 |
| 20260506185507 | 13 | 173 | 3.2 | 11.3 | 0.00 | 0.00 | 0.00 | 82 | 1020.9 |
| 20260506185007 | 13 | 146 | 3.2 | 12.9 | 0.00 | 0.00 | 0.00 | 81 | 1020.9 |
| 20260506184530 | 13 | 164 | 6.4 | 16.1 | 0.00 | 0.00 | 0.00 | 83 | 1021.0 |
| 20260506184008 | 13 | 159 | 6.4 | 16.1 | 0.00 | 0.00 | 0.00 | 82 | 1020.9 |
| 20260506183510 | 13 | 158 | 4.8 | 9.7 | 0.00 | 0.00 | 0.00 | 82 | 1020.8 |
| 20260506183010 | 13 | 166 | 3.2 | 8.0 | 0.00 | 0.00 | 0.00 | 82 | 1020.8 |
| 20260506182502 | 13 | 140 | 1.6 | 3.2 | 0.00 | 0.00 | 0.00 | 84 | 1020.8 |
| 20260506182009 | 13 | 136 | 1.6 | 3.2 | 0.00 | 0.00 | 0.00 | 84 | 1020.7 |
| 20260506181533 | 13 | 132 | 0.0 | 3.2 | 0.00 | 0.00 | 0.00 | 84 | 1020.9 |
| 20260506181006 | 13 | 120 | 0.0 | 9.7 | 0.00 | 0.00 | 0.00 | 84 | 1020.7 |
| 20260506180507 | 13 | 173 | 4.8 | 9.7 | 0.00 | 0.00 | 0.00 | 85 | 1020.8 |
| 20260506180019 | 13 | 181 | 1.6 | 6.4 | 0.00 | 0.00 | 0.00 | 85 | 1020.9 |
| 20260506175511 | 13 | 91 | 1.6 | 6.4 | 0.00 | 0.00 | 0.00 | 86 | 1020.8 |
| 20260506175008 | 13 | 138 | 1.6 | 9.7 | 0.00 | 0.00 | 0.00 | 87 | 1020.6 |
| 20260506174528 | 13 | 150 | 1.6 | 9.7 | 0.00 | 0.00 | 0.00 | 87 | 1020.4 |
| 20260506174014 | 12 | 148 | 1.6 | 6.4 | 0.00 | 0.00 | 0.00 | 87 | 1020.3 |
| 20260506173512 | 12 | 165 | 1.6 | 8.0 | 0.00 | 0.00 | 0.00 | 86 | 1020.4 |
| 20260506173048 | 12 | 140 | 3.2 | 8.0 | 0.00 | 0.00 | 0.00 | 86 | 1020.5 |
| 20260506172510 | 12 | 147 | 3.2 | 11.3 | 0.00 | 0.00 | 0.00 | 86 | 1020.6 |
| 20260506172009 | 12 | 184 | 3.2 | 12.9 | 0.00 | 0.00 | 0.00 | 85 | 1020.7 |
| 20260506171516 | 12 | 171 | 6.4 | 12.9 | 0.00 | 0.00 | 0.00 | 85 | 1020.8 |
| 20260506171003 | 13 | 171 | 6.4 | 11.3 | 0.00 | 0.00 | 0.00 | 85 | 1020.8 |
| 20260506170503 | 13 | 149 | 1.6 | 6.4 | 0.00 | 0.00 | 0.00 | 86 | 1020.5 |
| 20260506170004 | 13 | 126 | 0.0 | 6.4 | 0.00 | 0.00 | 0.00 | 86 | 1020.5 |
| 20260506165506 | 13 | 140 | 1.6 | 3.2 | 0.00 | 0.00 | 0.00 | 86 | 1020.6 |
| 20260506165003 | 13 | 200 | 0.0 | 4.8 | 0.00 | 0.00 | 0.00 | 86 | 1020.5 |
| 20260506164505 | 13 | 172 | 1.6 | 4.8 | 0.00 | 0.00 | 0.00 | 86 | 1020.5 |
| 20260506164002 | 13 | 178 | 1.6 | 3.2 | 0.00 | 0.00 | 0.00 | 86 | 1020.6 |
| 20260506163502 | 13 | 148 | 0.0 | 4.8 | 0.00 | 0.00 | 0.00 | 86 | 1020.5 |
| 20260506163014 | 12 | 99 | 0.0 | 4.8 | 0.00 | 0.00 | 0.00 | 87 | 1020.4 |
| 20260506162503 | 12 | 142 | 0.0 | 3.2 | 0.00 | 0.00 | 0.00 | 88 | 1020.3 |
| 20260506162005 | 12 | 98 | 0.0 | 3.2 | 0.00 | 0.00 | 0.00 | 89 | 1020.4 |
| 20260506161510 | 12 | 61 | 1.6 | 4.8 | 0.00 | 0.00 | 0.00 | 88 | 1020.2 |
| 20260506161006 | 12 | 109 | 1.6 | 4.8 | 0.00 | 0.00 | 0.00 | 88 | 1020.2 |
| 20260506160504 | 12 | 105 | 1.6 | 4.8 | 0.00 | 0.00 | 0.00 | 88 | 1020.2 |
| 20260506160011 | 12 | 71 | 1.6 | 4.8 | 0.00 | 0.00 | 0.00 | 89 | 1020.0 |
| 20260506155504 | 12 | 113 | 0.0 | 9.7 | 0.00 | 0.00 | 0.00 | 89 | 1020.0 |
| 20260506155004 | 12 | 76 | 1.6 | 9.7 | 0.00 | 0.00 | 0.00 | 90 | 1019.8 |
| 20260506154503 | 12 | 99 | 1.6 | 6.4 | 0.00 | 0.00 | 0.00 | 90 | 1019.7 |
| 20260506154003 | 12 | 120 | 1.6 | 6.4 | 0.00 | 0.00 | 0.00 | 90 | 1019.8 |
| 20260506153503 | 12 | 150 | 1.6 | 6.4 | 0.00 | 0.00 | 0.00 | 91 | 1019.8 |
| 20260506153006 | 12 | 50 | 0.0 | 6.4 | 0.00 | 0.00 | 0.00 | 91 | 1019.9 |
| 20260506152504 | 12 | 90 | 1.6 | 4.8 | 0.00 | 0.00 | 0.00 | 91 | 1019.9 |
| 20260506152004 | 12 | 106 | 1.6 | 4.8 | 0.00 | 0.00 | 0.00 | 91 | 1020.1 |
| 20260506151509 | 12 | 104 | 0.0 | 3.2 | 0.00 | 0.00 | 0.00 | 91 | 1020.2 |
| 20260506151005 | 12 | 108 | 0.0 | 3.2 | 0.00 | 0.00 | 0.00 | 91 | 1020.2 |
| 20260506150502 | 12 | 108 | 0.0 | 3.2 | 0.00 | 0.00 | 0.00 | 91 | 1020.2 |
| 20260506150015 | 12 | 86 | 0.0 | 3.2 | 0.00 | 0.00 | 0.00 | 91 | 1020.0 |
| 20260506145504 | 12 | 103 | 0.0 | 3.2 | 0.00 | 0.00 | 0.00 | 92 | 1019.9 |
| 20260506145005 | 11 | 104 | 1.6 | 4.8 | 0.00 | 0.00 | 0.00 | 91 | 1019.8 |
| 20260506144514 | 11 | 63 | 1.6 | 4.8 | 0.00 | 0.00 | 0.00 | 91 | 1019.8 |
| 20260506144005 | 11 | 95 | 1.6 | 4.8 | 0.00 | 0.00 | 0.00 | 91 | 1019.9 |
| 20260506143504 | 11 | 92 | 3.2 | 6.4 | 0.00 | 0.00 | 0.00 | 91 | 1019.9 |
| 20260506143004 | 11 | 86 | 1.6 | 6.4 | 0.00 | 0.00 | 0.00 | 91 | 1019.9 |
| 20260506142503 | 11 | 96 | 0.0 | 4.8 | 0.00 | 0.00 | 0.00 | 91 | 1019.9 |
| 20260506142005 | 11 | 86 | 1.6 | 4.8 | 0.00 | 0.00 | 0.00 | 91 | 1019.9 |
| 20260506141508 | 11 | 90 | 1.6 | 4.8 | 0.00 | 0.00 | 0.00 | 91 | 1019.8 |
| 20260506141003 | 11 | 101 | 0.0 | 3.2 | 0.00 | 0.00 | 0.00 | 91 | 1019.8 |
| 20260506140505 | 11 | 81 | 0.0 | 3.2 | 0.00 | 0.00 | 0.00 | 90 | 1019.7 |
| 20260506140018 | 11 | 106 | 0.0 | 3.2 | 0.00 | 0.00 | 0.00 | 90 | 1019.8 |
| 20260506135506 | 11 | 86 | 1.6 | 3.2 | 0.00 | 0.00 | 0.00 | 90 | 1019.8 |
| 20260506135003 | 11 | 92 | 0.0 | 3.2 | 0.00 | 0.00 | 0.00 | 90 | 1019.8 |
| 20260506134514 | 11 | 111 | 0.0 | 3.2 | 0.00 | 0.00 | 0.00 | 90 | 1019.8 |
| 20260506134008 | 11 | 86 | 0.0 | 3.2 | 0.00 | 0.00 | 0.00 | 90 | 1019.8 |
| 20260506133510 | 11 | 86 | 0.0 | 3.2 | 0.00 | 0.00 | 0.00 | 90 | 1019.8 |
| 20260506133015 | 11 | 86 | 0.0 | 3.2 | 0.00 | 0.00 | 0.00 | 90 | 1019.6 |
| 20260506132507 | 11 | 86 | 0.0 | 1.6 | 0.00 | 0.00 | 0.00 | 90 | 1019.6 |
| 20260506132003 | 11 | 86 | 0.0 | 3.2 | 0.00 | 0.00 | 0.00 | 90 | 1019.6 |
| 20260506131508 | 11 | 86 | 0.0 | 3.2 | 0.00 | 0.00 | 0.00 | 90 | 1019.7 |
| 20260506131005 | 11 | 86 | 0.0 | 3.2 | 0.00 | 0.00 | 0.00 | 90 | 1019.6 |
| 20260506130503 | 11 | 86 | 0.0 | 3.2 | 0.00 | 0.00 | 0.00 | 90 | 1019.5 |
| 20260506130009 | 11 | 66 | 0.0 | 3.2 | 0.00 | 0.00 | 0.00 | 90 | 1019.3 |
| 20260506125502 | 11 | 66 | 0.0 | 3.2 | 0.00 | 0.00 | 0.00 | 90 | 1019.3 |
| 20260506125006 | 11 | 66 | 0.0 | 3.2 | 0.00 | 0.00 | 0.00 | 91 | 1019.2 |
| 20260506124517 | 11 | 66 | 0.0 | 3.2 | 0.00 | 0.00 | 0.00 | 91 | 1019.3 |
| 20260506124007 | 11 | 56 | 0.0 | 3.2 | 0.00 | 0.00 | 0.00 | 91 | 1019.3 |
| 20260506123504 | 11 | 56 | 0.0 | 3.2 | 0.00 | 0.00 | 0.00 | 91 | 1019.4 |
| 20260506123016 | 11 | 56 | 0.0 | 3.2 | 0.00 | 0.00 | 0.00 | 91 | 1019.2 |
| 20260506122507 | 11 | 78 | 0.0 | 1.6 | 0.00 | 0.00 | 0.00 | 91 | 1019.3 |
| 20260506122006 | 11 | 103 | 0.0 | 0.0 | 0.00 | 0.00 | 0.00 | 91 | 1019.2 |
| 20260506121517 | 11 | 103 | 0.0 | 0.0 | 0.00 | 0.00 | 0.00 | 91 | 1019.2 |
| 20260506121007 | 11 | 103 | 0.0 | 0.0 | 0.00 | 0.00 | 0.00 | 91 | 1019.2 |
| 20260506120503 | 11 | 103 | 0.0 | 0.0 | 0.00 | 0.00 | 0.00 | 91 | 1019.2 |
| 20260506120008 | 11 | 103 | 0.0 | 0.0 | 0.00 | 0.00 | 0.00 | 91 | 1019.1 |
| 20260506115504 | 11 | 103 | 0.0 | 0.0 | 0.00 | 0.00 | 0.00 | 91 | 1019.0 |
| 20260506115006 | 11 | 103 | 0.0 | 0.0 | 0.00 | 0.00 | 0.00 | 92 | 1019.1 |
| 20260506114510 | 11 | 103 | 0.0 | 0.0 | 0.00 | 0.00 | 0.00 | 92 | 1019.1 |
| 20260506114007 | 11 | 103 | 0.0 | 3.2 | 0.00 | 0.00 | 0.00 | 92 | 1019.1 |
| 20260506113507 | 11 | 103 | 0.0 | 3.2 | 0.00 | 0.00 | 0.00 | 92 | 1018.9 |
| 20260506113018 | 11 | 103 | 0.0 | 3.2 | 0.00 | 0.00 | 0.00 | 92 | 1018.8 |
| 20260506112509 | 11 | 103 | 0.0 | 3.2 | 0.00 | 0.00 | 0.00 | 92 | 1018.8 |
| 20260506112009 | 11 | 103 | 0.0 | 3.2 | 0.00 | 0.00 | 0.00 | 92 | 1018.7 |
| 20260506111519 | 11 | 103 | 0.0 | 3.2 | 0.00 | 0.00 | 0.00 | 92 | 1018.6 |
| 20260506111007 | 11 | 103 | 0.0 | 0.0 | 0.00 | 0.00 | 0.00 | 92 | 1018.6 |
| 20260506110506 | 11 | 103 | 0.0 | 3.2 | 0.00 | 0.00 | 0.00 | 92 | 1018.6 |
| 20260506110020 | 11 | 103 | 0.0 | 3.2 | 0.00 | 0.00 | 0.00 | 92 | 1018.5 |
| 20260506105508 | 11 | 93 | 1.6 | 3.2 | 0.00 | 0.00 | 0.00 | 92 | 1018.5 |
| 20260506105004 | 11 | 84 | 0.0 | 3.2 | 0.00 | 0.00 | 0.00 | 92 | 1018.5 |
| 20260506104527 | 11 | 94 | 0.0 | 3.2 | 0.00 | 0.00 | 0.00 | 92 | 1018.4 |
| 20260506104003 | 11 | 96 | 0.0 | 3.2 | 0.00 | 0.00 | 0.00 | 92 | 1018.4 |
| 20260506103503 | 11 | 115 | 0.0 | 3.2 | 0.00 | 0.00 | 0.00 | 92 | 1018.3 |
| 20260506103016 | 11 | 115 | 0.0 | 3.2 | 0.00 | 0.00 | 0.00 | 92 | 1018.3 |
| 20260506102508 | 11 | 100 | 0.0 | 3.2 | 0.00 | 0.00 | 0.00 | 91 | 1018.3 |
| 20260506102007 | 11 | 98 | 0.0 | 0.0 | 0.00 | 0.00 | 0.00 | 91 | 1018.3 |
| 20260506101520 | 11 | 111 | 0.0 | 0.0 | 0.00 | 0.00 | 0.00 | 91 | 1018.2 |
| 20260506101008 | 11 | 124 | 0.0 | 0.0 | 0.00 | 0.00 | 0.00 | 91 | 1018.2 |
| 20260506100508 | 11 | 124 | 0.0 | 0.0 | 0.00 | 0.00 | 0.00 | 91 | 1018.2 |
| 20260506100020 | 11 | 124 | 0.0 | 0.0 | 0.00 | 0.00 | 0.00 | 91 | 1018.2 |
| 20260506095509 | 11 | 124 | 0.0 | 0.0 | 0.00 | 0.00 | 0.00 | 91 | 1018.2 |
| 20260506095009 | 11 | 124 | 0.0 | 0.0 | 0.00 | 0.00 | 0.00 | 91 | 1018.1 |
| 20260506094522 | 11 | 124 | 0.0 | 0.0 | 0.00 | 0.00 | 0.00 | 91 | 1018.1 |
| 20260506094004 | 11 | 124 | 0.0 | 0.0 | 0.00 | 0.00 | 0.00 | 91 | 1018.0 |
| 20260506093502 | 11 | 124 | 0.0 | 0.0 | 0.00 | 0.00 | 0.00 | 91 | 1018.0 |
| 20260506093014 | 11 | 124 | 0.0 | 0.0 | 0.00 | 0.00 | 0.00 | 90 | 1018.0 |
| 20260506092505 | 11 | 124 | 0.0 | 0.0 | 0.00 | 0.00 | 0.00 | 89 | 1018.0 |
| 20260506092006 | 11 | 124 | 0.0 | 0.0 | 0.00 | 0.00 | 0.00 | 89 | 1018.0 |
| 20260506091519 | 11 | 124 | 0.0 | 0.0 | 0.00 | 0.00 | 0.00 | 89 | 1018.0 |
| 20260506091010 | 11 | 124 | 0.0 | 0.0 | 0.00 | 0.00 | 0.00 | 89 | 1017.9 |
| 20260506090513 | 11 | 124 | 0.0 | 0.0 | 0.00 | 0.00 | 0.00 | 89 | 1017.9 |
| 20260506090020 | 11 | 124 | 0.0 | 0.0 | 0.00 | 0.00 | 0.00 | 89 | 1017.9 |
| 20260506085511 | 11 | 124 | 0.0 | 0.0 | 0.00 | 0.00 | 0.00 | 89 | 1017.8 |
| 20260506085006 | 11 | 124 | 0.0 | 0.0 | 0.00 | 0.00 | 0.00 | 89 | 1017.8 |
| 20260506084522 | 11 | 124 | 0.0 | 0.0 | 0.00 | 0.00 | 0.00 | 89 | 1017.7 |
| 20260506084009 | 11 | 124 | 0.0 | 0.0 | 0.00 | 0.00 | 0.00 | 89 | 1017.7 |
| 20260506083506 | 11 | 124 | 0.0 | 0.0 | 0.00 | 0.00 | 0.00 | 89 | 1017.8 |
| 20260506083035 | 11 | 124 | 0.0 | 0.0 | 0.00 | 0.00 | 0.00 | 89 | 1017.7 |
| 20260506082505 | 11 | 124 | 0.0 | 3.2 | 0.00 | 0.00 | 0.00 | 89 | 1017.6 |
| 20260506082006 | 11 | 124 | 0.0 | 3.2 | 0.00 | 0.00 | 0.00 | 89 | 1017.6 |
| 20260506081515 | 11 | 84 | 0.0 | 3.2 | 0.00 | 0.00 | 0.00 | 89 | 1017.6 |
| 20260506081002 | 11 | 84 | 0.0 | 3.2 | 0.00 | 0.00 | 0.00 | 89 | 1017.5 |
| 20260506080502 | 11 | 84 | 0.0 | 3.2 | 0.00 | 0.00 | 0.00 | 89 | 1017.5 |
| 20260506073505 | 12 | 79 | 0.0 | 3.2 | 0.00 | 0.00 | 0.00 | 88 | 1017.4 |
| 20260506073008 | 12 | 86 | 0.0 | 3.2 | 0.00 | 0.00 | 0.00 | 88 | 1017.4 |
| 20260506072505 | 12 | 83 | 0.0 | 3.2 | 0.00 | 0.00 | 0.00 | 88 | 1017.4 |
| 20260506072005 | 12 | 88 | 0.0 | 3.2 | 0.00 | 0.00 | 0.00 | 88 | 1017.3 |
| 20260506071516 | 12 | 94 | 0.0 | 3.2 | 0.00 | 0.00 | 0.00 | 87 | 1017.3 |
| 20260506071006 | 12 | 67 | 0.0 | 3.2 | 0.00 | 0.00 | 0.00 | 87 | 1017.3 |
| 20260506070507 | 12 | 67 | 0.0 | 1.6 | 0.00 | 0.00 | 0.00 | 87 | 1017.3 |
| 20260506062505 | 12 | 327 | 0.0 | 3.2 | 0.00 | 0.00 | 0.00 | 84 | 1017.1 |
| 20260506062006 | 12 | 336 | 0.0 | 3.2 | 0.00 | 0.00 | 0.00 | 84 | 1017.0 |
| 20260506061510 | 13 | 80 | 0.0 | 3.2 | 0.00 | 0.00 | 0.00 | 84 | 1017.0 |
| 20260506061007 | 13 | 80 | 0.0 | 3.2 | 0.00 | 0.00 | 0.00 | 84 | 1016.8 |
| 20260506060509 | 13 | 80 | 0.0 | 3.2 | 0.00 | 0.00 | 0.00 | 83 | 1016.8 |
| 20260506051004 | 14 | 80 | 0.0 | 0.0 | 0.00 | 0.00 | 0.00 | 79 | 1016.2 |
| 20260506050504 | 15 | 80 | 0.0 | 0.0 | 0.00 | 0.00 | 0.00 | 79 | 1016.1 |
| 20260506045006 | 15 | 80 | 0.0 | 0.0 | 0.00 | 0.00 | 0.00 | 78 | 1016.1 |
| 20260506044522 | 15 | 80 | 0.0 | 0.0 | 0.00 | 0.00 | 0.00 | 78 | 1016.1 |
| 20260506044006 | 15 | 80 | 0.0 | 0.0 | 0.00 | 0.00 | 0.00 | 78 | 1016.1 |
| 20260506043511 | 15 | 80 | 0.0 | 3.2 | 0.00 | 0.00 | 0.00 | 77 | 1016.0 |
| 20260506043010 | 15 | 80 | 0.0 | 3.2 | 0.00 | 0.00 | 0.00 | 77 | 1015.9 |
| 20260506042504 | 15 | 80 | 0.0 | 3.2 | 0.00 | 0.00 | 0.00 | 77 | 1015.9 |
| 20260506042004 | 15 | 74 | 0.0 | 3.2 | 0.00 | 0.00 | 0.00 | 76 | 1015.8 |
| 20260506041509 | 16 | 89 | 0.0 | 1.6 | 0.00 | 0.00 | 0.00 | 76 | 1015.8 |
| 20260506041004 | 16 | 89 | 0.0 | 0.0 | 0.00 | 0.00 | 0.00 | 75 | 1015.9 |
| 20260506040504 | 16 | 89 | 0.0 | 0.0 | 0.00 | 0.00 | 0.00 | 75 | 1015.8 |
| 20260506040023 | 16 | 89 | 0.0 | 0.0 | 0.00 | 0.00 | 0.00 | 74 | 1015.7 |
| 20260506035505 | 16 | 89 | 0.0 | 0.0 | 0.00 | 0.00 | 0.00 | 74 | 1015.7 |
| 20260506035005 | 16 | 89 | 0.0 | 0.0 | 0.00 | 0.00 | 0.00 | 73 | 1015.7 |
| 20260506034529 | 16 | 89 | 0.0 | 0.0 | 0.00 | 0.00 | 0.00 | 73 | 1015.7 |
| 20260506034006 | 16 | 89 | 0.0 | 0.0 | 0.00 | 0.00 | 0.00 | 73 | 1015.7 |
| 20260506033508 | 17 | 89 | 0.0 | 0.0 | 0.00 | 0.00 | 0.00 | 72 | 1015.7 |
| 20260506033026 | 17 | 89 | 0.0 | 0.0 | 0.00 | 0.00 | 0.00 | 72 | 1015.6 |
| 20260506032510 | 17 | 89 | 0.0 | 3.2 | 0.00 | 0.00 | 0.00 | 72 | 1015.6 |
| 20260506032011 | 17 | 89 | 0.0 | 3.2 | 0.00 | 0.00 | 0.00 | 71 | 1015.5 |
| 20260506031508 | 17 | 87 | 0.0 | 3.2 | 0.00 | 0.00 | 0.00 | 71 | 1015.5 |
| 20260506031004 | 17 | 91 | 0.0 | 3.2 | 0.00 | 0.00 | 0.00 | 70 | 1015.5 |
| 20260506030503 | 17 | 86 | 0.0 | 3.2 | 0.00 | 0.00 | 0.00 | 70 | 1015.3 |
| 20260506030010 | 17 | 79 | 0.0 | 3.2 | 0.00 | 0.00 | 0.00 | 70 | 1015.4 |
| 20260506025509 | 17 | 105 | 0.0 | 3.2 | 0.00 | 0.00 | 0.00 | 69 | 1015.4 |
| 20260506025006 | 17 | 37 | 0.0 | 4.8 | 0.00 | 0.00 | 0.00 | 69 | 1015.4 |
| 20260506024526 | 17 | 76 | 1.6 | 4.8 | 0.00 | 0.00 | 0.00 | 69 | 1015.4 |
| 20260506024010 | 17 | 99 | 0.0 | 4.8 | 0.00 | 0.00 | 0.00 | 68 | 1015.4 |
| 20260506023509 | 17 | 102 | 0.0 | 4.8 | 0.00 | 0.00 | 0.00 | 68 | 1015.3 |
| 20260506023020 | 17 | 52 | 0.0 | 4.8 | 0.00 | 0.00 | 0.00 | 68 | 1015.3 |
| 20260506022507 | 17 | 88 | 1.6 | 4.8 | 0.00 | 0.00 | 0.00 | 68 | 1015.3 |
| 20260506022008 | 17 | 34 | 1.6 | 4.8 | 0.00 | 0.00 | 0.00 | 68 | 1015.3 |
| 20260506021540 | 17 | 82 | 1.6 | 3.2 | 0.00 | 0.00 | 0.00 | 68 | 1015.3 |
| 20260506021007 | 18 | 88 | 0.0 | 3.2 | 0.00 | 0.00 | 0.00 | 68 | 1015.3 |
| 20260506020504 | 17 | 44 | 1.6 | 9.7 | 0.00 | 0.00 | 0.00 | 68 | 1015.3 |
| 20260506020010 | 18 | 94 | 1.6 | 9.7 | 0.00 | 0.00 | 0.00 | 67 | 1015.3 |
| 20260506015505 | 18 | 94 | 1.6 | 6.4 | 0.00 | 0.00 | 0.00 | 68 | 1015.2 |
| 20260506015005 | 18 | 49 | 0.0 | 8.0 | 0.00 | 0.00 | 0.00 | 68 | 1015.3 |
| 20260506014522 | 18 | 74 | 1.6 | 8.0 | 0.00 | 0.00 | 0.00 | 68 | 1015.3 |
| 20260506014004 | 18 | 150 | 1.6 | 11.3 | 0.00 | 0.00 | 0.00 | 67 | 1015.2 |
| 20260506013506 | 18 | 27 | 3.2 | 11.3 | 0.00 | 0.00 | 0.00 | 67 | 1015.3 |
| 20260506013021 | 18 | 142 | 1.6 | 6.4 | 0.00 | 0.00 | 0.00 | 67 | 1015.3 |
| 20260506012507 | 18 | 153 | 3.2 | 6.4 | 0.00 | 0.00 | 0.00 | 67 | 1015.3 |
| 20260506012007 | 18 | 162 | 1.6 | 6.4 | 0.00 | 0.00 | 0.00 | 68 | 1015.3 |
| 20260506011526 | 18 | 69 | 3.2 | 6.4 | 0.00 | 0.00 | 0.00 | 68 | 1015.3 |
| 20260506011007 | 18 | 77 | 0.0 | 4.8 | 0.00 | 0.00 | 0.00 | 68 | 1015.3 |
| 20260506010508 | 18 | 101 | 1.6 | 4.8 | 0.00 | 0.00 | 0.00 | 67 | 1015.4 |
| 20260506010032 | 18 | 96 | 1.6 | 6.4 | 0.00 | 0.00 | 0.00 | 68 | 1015.5 |
| 20260506005509 | 18 | 35 | 1.6 | 6.4 | 0.00 | 0.00 | 0.00 | 68 | 1015.5 |
| 20260506005006 | 18 | 95 | 3.2 | 6.4 | 0.00 | 0.00 | 0.00 | 68 | 1015.5 |
| 20260506004512 | 18 | 175 | 0.0 | 11.3 | 0.00 | 0.00 | 0.00 | 67 | 1015.5 |
| 20260506004003 | 18 | 129 | 3.2 | 11.3 | 0.00 | 0.00 | 0.00 | 68 | 1015.5 |
| 20260506003507 | 18 | 136 | 3.2 | 8.0 | 0.00 | 0.00 | 0.00 | 67 | 1015.5 |
| 20260506003020 | 18 | 84 | 1.6 | 9.7 | 0.00 | 0.00 | 0.00 | 67 | 1015.5 |
| 20260506002508 | 18 | 9 | 3.2 | 9.7 | 0.00 | 0.00 | 0.00 | 67 | 1015.6 |
| 20260506002009 | 18 | 114 | 3.2 | 6.4 | 0.00 | 0.00 | 0.00 | 67 | 1015.6 |
| 20260506001522 | 18 | 92 | 1.6 | 9.7 | 0.00 | 0.00 | 0.00 | 67 | 1015.7 |
| 20260506001009 | 18 | 91 | 1.6 | 9.7 | 0.00 | 0.00 | 0.00 | 67 | 1015.8 |
| 20260506000510 | 18 | 102 | 1.6 | 9.7 | 0.00 | 0.00 | 0.00 | 68 | 1015.8 |
| 20260506000024 | 18 | 58 | 1.6 | 9.7 | 0.00 | 0.00 | 0.00 | 67 | 1015.9 |
| 20260505235508 | 18 | 90 | 3.2 | 8.0 | 0.00 | 0.00 | 0.00 | 67 | 1016.0 |
| 20260505235012 | 18 | 292 | 3.2 | 8.0 | 0.00 | 0.00 | 0.00 | 67 | 1016.0 |
| 20260505234539 | 18 | 113 | 1.6 | 6.4 | 0.00 | 0.00 | 0.00 | 68 | 1016.1 |
| 20260505234002 | 18 | 126 | 1.6 | 9.7 | 0.00 | 0.00 | 0.00 | 68 | 1016.1 |
| 20260505233509 | 17 | 21 | 3.2 | 9.7 | 0.00 | 0.00 | 0.00 | 68 | 1016.1 |
| 20260505233016 | 17 | 140 | 3.2 | 11.3 | 0.00 | 0.00 | 0.00 | 70 | 1016.1 |
| 20260505232507 | 17 | 151 | 1.6 | 11.3 | 0.00 | 0.00 | 0.00 | 70 | 1016.2 |
| 20260505232006 | 17 | 88 | 3.2 | 9.7 | 0.00 | 0.00 | 0.00 | 70 | 1016.2 |